Regional Weather Roundup
Issued by NWS

Home | Current Version | Previous Version | Graphics & Text | Print | Product List | Glossary On
Versions: 1 2 3 4 5 6 7 8 9 10 11 12 13 14 15 16 17 18 19 20 21 22 23 24 25 26 27 28 29 30 31 32 33 34 35 36 37 38 39 40 41 42 43 44 45 46 47 48 49
000
ASUS45 KSLC 290410
RWRUT

UTAH REGIONAL WEATHER ROUNDUP
NATIONAL WEATHER SERVICE SALT LAKE CITY UT
1000 PM MDT SUN SEP 28 2014

UTZ001>011-023>025-290500-

NORTHERN UTAH

CITY           SKY/WX    TMP DP  RH WIND       PRES   REMARKS
HILL AFB       CLOUDY    57  42  57 SE8       29.98S
LOGAN          NOT AVBL
OGDEN          CLOUDY    59  44  57 SE5       29.97R
PROVO AIRPORT  CLOUDY    57  43  58 SW13      30.01R
SALT LAKE CITY CLOUDY    57  46  66 W3        29.98R
VERNAL         CLOUDY    55  41  59 SE20      30.06R
WENDOVER       PTCLDY    57  43  58 NE8       29.96R
HEBER CITY     CLOUDY    46  41  81 E3        30.03S
WEST JORDAN    PTCLDY    54  46  76 W5        29.99R

$$

UTZ012>022-026-027-290500-

SOUTHERN UTAH

CITY           SKY/WX    TMP DP  RH WIND       PRES   REMARKS
BRYCE CANYON   CLOUDY    40  38  93 CALM      30.11R
CEDAR CITY     MOCLDY    49  41  74 CALM      30.01R
MILFORD        PTCLDY   N/A N/A N/A CALM      29.99R
MOAB/CYNLANDS  MOCLDY    54  51  90 CALM      30.02F
PRICE          CLOUDY    48  43  82 NE12      30.06F
ST GEORGE      CLOUDY    63  46  55 SE6       29.92R
KANAB            N/A     52  46  82 CALM      30.04R

$$

REGIONAL REPORTS     COLORADO/ARIZONA

CITY           SKY/WX    TMP DP  RH WIND       PRES   REMARKS
CRAIG, CO      LGT RAIN  49  45  86 W14       30.13R
GRAND JUNCTION CLOUDY    52  51  97 VRB3      30.06R
RIFLE          LGT RAIN  52  48  86 E9        30.09R
MONTROSE       MOCLDY    55  50  83 W3        30.09F
CORTEZ         CLEAR     54  50  86 VRB3      30.07R
PAGE, AZ       NOT AVBL
GRAND CANYON   CLEAR     40  36  86 CALM      30.08S
KINGMAN        NOT AVBL
FLAGSTAFF      CLEAR     43  35  73 CALM      30.11R

$$

REGIONAL REPORTS    NEVADA/IDAHO/WYOMING

CITY           SKY/WX    TMP DP  RH WIND       PRES   REMARKS
LAS VEGAS, NV  PTCLDY    73  35  25 SW9       29.81R
ELY            PTCLDY    42  39  89 MISG      30.05R
ELKO           CLOUDY    55  37  50 SW6       29.98R
POCATELLO, ID  CLEAR     45  44  97 N7        30.02R
BURLEY         MOCLDY    51  47  86 N7        30.00R
EVANSTON, WY   CLOUDY    45  40  82 E7        30.09S
ROCK SPRINGS   LGT RAIN  49  46  90 E7        30.10R

$$



USA.gov is the U.S. government's official web portal to all federal, state and local government web resources and services.